Weather Roundup
Issued by NWS Chicago, IL

Home | Current Version | Previous Version | Graphics & Text | Print | Product List | Glossary On
Versions: 1 2 3 4 5 6 7 8 9 10 11 12 13 14 15 16 17 18 19 20 21 22 23 24 25 26 27 28 29 30 31 32 33 34 35 36 37 38 39 40 41 42 43 44 45 46 47 48 49 50
000
NZUS59 KLOT 041921
HRRLOT

CHICAGO AREA WEATHER ROUNDUP
NATIONAL WEATHER SERVICE CHICAGO/ROMEOVILLE IL
200 PM CDT TUE AUG 04 2015

NOTE: "FAIR" INDICATES FEW OR NO CLOUDS BELOW 12,000 FEET WITH NO
SIGNIFICANT WEATHER AND/OR OBSTRUCTIONS TO VISIBILITY.

* THESE STATIONS ARE NOT UNDER NWS QUALITY CONTROL. THEY ALSO MAY NOT
  REPORT WEATHER SUCH AS PRECIPITATION OR FOG.

ILZ005-006-012>014-019>023-042000-
NORTHEAST ILLINOIS

CITY           SKY/WX    TMP DP  RH WIND       PRES   REMARKS
OHARE          PTSUNNY   81  52  36 W16G22    29.97S HX  80
MIDWAY         PTSUNNY   83  52  34 W9G18     29.97R HX  82
AURORA         MOSUNNY   80  55  42 W9        30.00R HX  80
LANSING*       PTSUNNY   82  52  35 W12G18    29.97F HX  81
JOLIET*        PTSUNNY   82  58  42 W10G16    29.99S HX  82
WAUKEGAN       PTSUNNY   78  54  43 NW12      29.96S
DUPAGE AIRPORT MOSUNNY   79  53  40 W10       29.98S
WHEELING       PTSUNNY   80  51  36 NW12      29.98S HX  80
KANKAKEE*      MOSUNNY   80  57  45 NW10      30.00S HX  80
MORRIS*        MOSUNNY   80  56  44 NW14      29.99R HX  80
LEWIS AIRPORT* MOSUNNY   80  54  40 NW13G18   29.99S HX  80
NORTHERLY IS   NOT AVBL
$$

WIZ051-052-058>065-066-070>072-042000-
SOUTHEAST WISCONSIN

CITY           SKY/WX    TMP DP  RH WIND       PRES   REMARKS
MILWAUKEE      PTSUNNY   79  47  32 W15       29.96S
KENOSHA*       PTSUNNY   75  56  51 W10       29.97S
RACINE*        PTSUNNY   78  53  41 NW13      29.98R
BURLINGTON     MOSUNNY   76  50  40 W12G17    29.98S
WAUKESHA       MOSUNNY   77  46  33 W12G23    29.99R
WEST BEND      PTSUNNY   75  46  35 W14G20    29.97S
$$

INZ001>003-010>013-019-020-042000-
NORTHWEST INDIANA

CITY           SKY/WX    TMP DP  RH WIND       PRES   REMARKS
GARY*          PTSUNNY   82  52  34 W9G23     29.98R HX  81
MICHIGAN CITY* NOT AVBL
RENSSELAER*    NOT AVBL
VALPARAISO     PTSUNNY   80  53  39 W13       29.98S HX  80
$$

LMZ740>746-042000-
SOUTHERN LAKE MICHIGAN

STATION/POSITION TIME  SKY/WX   TEMP WIND        PRES    VSBY
                                AIR  DIR/SP/G
                 (UTC)          (F)  (DEG/KT/KT) (MB)    (MI)
HARRISON CRIB    1900            78  320/  5/  7   N/A
BURNHAM HARBOR   1900            80  240/  9/ 13   N/A
CALUMET HARBOR   1800            79  230/  4/  9   N/A
BURNS HARBOR     1800            75   20/  3/  4 1015.2F
MICHIGAN CITY    1800            74  230/  3/  3   N/A
$$

ABBREVIATIONS USED IN REMARKS
   TC - TEMPERATURE IN CELSIUS
  WCI - WIND CHILL INDEX
   HX - HEAT INDEX
  VSB - VISIBILITY
$$


USA.gov is the U.S. government's official web portal to all federal, state and local government web resources and services.